Location: Lane
(33.5226°N, 79.8788°W)
Time: 09:24:59
(UTC+00:00)

Tiros 1 despin weight - Pass Details

Date: 12 October 2022
Orbit: 590 x 637 km, 48.2° (Epoch: 28 November)

Event Time Altitude Azimuth Distance (km) Brightness Sun altitude
Rises 17:11:30 0° 242° (WSW) 2,805 ? 48.9°
Reaches altitude 10° 17:13:48 10° 246° (WSW) 1,908 ? 48.9°
Maximum altitude 17:18:06 56° 325° (NW) 706 ? 48.8°
Drops below altitude 10° 17:22:27 10° 44° (NE) 1,929 ? 48.7°
Sets 17:24:47 0° 49° (NE) 2,839 ? 48.7°
